星链-32541 (STARLINK-32541)

导读

STARLINK-32541是美国SpaceX星链星座的卫星,于2024年11月11日发射升空,属于第二代星链网络组网卫星,旨在为全球提供低延迟、高速率的卫星互联网服务,弥补地面通信覆盖盲区。该卫星入轨后逐步完成姿态调整与测试,融入已有星链星座运行,进一步拓展星链的全球服务覆盖范围与容量。

Basic Information
目录编号:
61916
目录名称:
STARLINK-32541
国际标识:
2024-207E
轨道中心:
EARTH
卫星名称:
星链-32541
卫星全名:
星链-32541 (STARLINK-32541)
卫星状态:
在轨 (已飞行662 天)
发射日期:
2024-11-11 UTC
国别 :
美国 (US)
星等 :
--
Orbit Information
数据来源 国际轨道数据
星历时间: 2026-09-04T14:58:28+0800
8小时前
查看轨道信息
半长轴: 6861.167km
偏心率: 0.0000837
轨道倾角: 42.999°
近地点辐角 218.683°
升交点赤经 356.827°
平近点角 141.396°
近地点: 482.455km
远地点: 483.605km
周期: 94.266分钟
每日圈数: 15.275864
Detailed Information
固有亮度:
5
最大亮度:
2.5
卫星平台:
Starlink V1.0
覆盖范围:
全球
运营商:
太空探索技术公司
运营商所在国:
美国
制造商(研发单位):
太空探索技术公司
制造商所在国:
美国
使用方式:
暂无
Satellite Introduction
Starlink 计划是 SpaceX 推出的全球卫星互联网项目,通过发射低轨道卫星,为全球尤其是偏远地区提供高速、低延迟的互联网服务。自 2019 年起,Starlink 已部署数千颗卫星,旨在缩小全球数字鸿沟,推动互联网普及。该项目还为军事、航空等行业提供通信支持,带来广泛经济效益。
2D Orbit Map
3D Orbit Map
Orbit Altitude Analysis Chart
Orbit Inclination Analysis Chart
Orbit Comprehensive Analysis Chart
View Comprehensive Chart
Conjunction Data List
Event ID Objects TCA Miss Dist (km) Collision Risk Probability Collision Risk Index (CRI) Action
CDM_260906-193605-641106-191621
2026-09-06T
19:36:22+0000
0.247 km
中距离
5.085661E-4 高风险 0.89
CDM_260901-062906-191606-685321
2026-09-01T
06:29:26+0000
0.764 km
远距离
3.145283E-5 中风险 0.65
CDM_260906-140606-191606-470421
2026-09-06T
14:06:52+0000
1.025 km
极远距离
2.077557E-5 中风险 0.61
CDM_260906-180205-641106-191621
2026-09-06T
18:02:13+0000
1.756 km
极远距离
2.716893E-6 低风险 0.44
CDM_260906-211005-641106-191621
2026-09-06T
21:10:32+0000
1.876 km
极远距离
2.266203E-6 低风险 0.42
CDM_260901-045506-191606-685321
2026-09-01T
04:55:17+0000
1.806 km
极远距离
1.899491E-6 低风险 0.41